sat.trackr.live / text

‹ back to catalog

STARLINK-36578

NORAD 67571 · 2026-016L

PAYLOAD ACTIVE UNKNOWN

§ Identity

Operator
Country
US
Launch date
2026-01-25
Launch site
AFWTR
Launch vehicle
Mass (kg)
RCS (m²)

Purposes: comms

External: N2YO · Heavens-Above · Gunter

§ Orbital elements

Epoch: 2026-05-25T02:35:51.967104Z

Period
93.90 min
Inclination
97.2878°
Eccentricity
0.0000745
Mean motion
15.33474526 rev/d
Perigee alt
464.9 km
Apogee alt
466.0 km
Semi-major
6,843.6 km
B*
5.3298e-4
RAAN
205.4131°
Arg perigee
69.6894°
Mean anomaly
290.4428°
Rev number
1,857

§ Raw data

STARLINK-365781 67571U 26016L   26145.10824036  .00017186  00000+0  53298-3 0  99952 67571  97.2878 205.4131 0000745  69.6894 290.4428 15.33474526 18573

JSON: /api/v1/satellites/67571 · /tle

For live sub-satellite position, see the globe view (requires WebGL).

§ Visibility from observer

Set your observer location to see the next 7 days of passes ≥ 10°. The values pass through the URL so the page stays shareable.

No JS? Fill the form by hand. The geolocation button needs JavaScript.